Starlink 33614

operational
NORAD ID: 63372 Int'l Des: 2025-063 Owner: SPXS Country: US Constellation: starlink
LEOCIRCULAR

About Starlink 33614

Description loading...

Live Position

Loading 3D Globe...

Upcoming Passes

Altitude History

Altitude vs Time

uPlot chart will show altitude changes over time

Two-Line Element Set

1 63372U 25063K 25258.43061745 .00083528 00000-0 20714-2 0 9991
2 63372 53.1571 147.4398 0000862 76.9572 283.1529 15.39677877 27912
Epoch: Sep 15, 2025 • Age: 15 hours

Current Status

Altitude 460.6 km
Velocity 7.64 km/s
Sub-Earth Point -40.77°S, 84.01°E
Launch Date Mar 26, 2025
Age 0.4 years
Type internet

Technical Details

Classification Payload
Mass 575.00 kg
Dry Mass 530.00 kg
Total Mass 575.00 kg
Length 0.30 m
Diameter 4.10 m
Span 29.00 m
Shape Box + pan
Manufacturer SPXS
Bus Type Starlink V2MO
Phase Status In Orbit
Owner/State SPXS/US

Large Constellations

Loading constellations...